Location: Piotrkow Trybunalski
(51.4000°N, 19.6830°E)
Time: 09:05:05
(UTC+01:00)

Transit 4A - Pass Details

Date: 05 December 2023
Orbit: 869 x 973 km, 66.8° (Epoch: 28 February)

Event Time Altitude Azimuth Distance (km) Brightness Sun altitude
Exits shadow 05:44:39 22° 275° (W) 1,898 8.9 -15.3°
Maximum altitude 05:46:15 24° 252° (WSW) 1,775 8.9 -15.1°
Drops below altitude 10° 05:50:55 10° 200° (SSW) 2,562 10.2 -14.4°
Sets 05:53:48 0° 187° (S) 3,482 11.1 -14.0°
